Location: Bremen
(53.0793°N, 8.8017°E)
Time: 21:02:52
(UTC+01:00)

S-56A Canister/Altair - Pass Details

Date: 02 December 2021
Orbit: 634 x 2499 km, 38.9° (Epoch: 26 January)

Event Time Altitude Azimuth Distance (km) Brightness Sun altitude
Rises 03:20:23 0° 247° (WSW) 4,136 - -43.0°
Reaches altitude 10° 03:24:21 10° 232° (SW) 2,834 - -42.5°
Maximum altitude 03:28:52 20° 188° (S) 1,883 - -41.8°
Drops below altitude 10° 03:32:33 10° 141° (SE) 2,246 - -41.3°
Exits shadow 03:34:41 - 126° (SE) 2,846 10.8 -41.0°
Sets 03:35:16 0° 124° (ESE) 3,032 11.0 -40.9°
